Back to catalog

FLOCK 4H 15

AliveScienceSSO
NORAD 66718·PAYLOAD·🇺🇸 United States

Launched Nov 28, 2025 from Vandenberg Space Force Base

Loading…

Next Passes (next 24 hours)

TLE

FreshSource: CelesTrak SupGP

Epoch: Sep 14, 2026, 22:45 UTC

1 66718C 25276BE  26257.94797454  .00014849  00000+0  66481-3 0  2571
2 66718  97.4140 329.9827 0004575  73.3669 208.7590 15.21322837    16

Track FLOCK 4H 15 in real time with AllMySat

Download on the App Store